Weather History for Juan Santamaria, Costa Rica

Change the Weather History Date:

Tuesday, August 20, 2013

  Actual Average Record
Temperature  
Mean Temperature 74 °F -  
Max Temperature 85 °F 79 °F - ()
Min Temperature 63 °F 63 °F - ()
Cooling Degree Days 9    
Growing Degree Days 24 (Base 50)    
Moisture  
Dew Point 65 °F    
Average Humidity 81    
Maximum Humidity 100    
Minimum Humidity 51    
Precipitation  
Precipitation 0.24 in 0.43 in - ()
Sea Level Pressure  
Sea Level Pressure 29.93 in    
Wind  
Wind Speed 4 mph ()    
Max Wind Speed 15 mph    
Max Gust Speed 18 mph    
Visibility 7.1 miles    
Events Fog , Rain , Thunderstorm    
T = Trace of Precipitation, MM = Missing Value Source: Averaged Metar Reports

Daily Weather History Graph

Daily Weather History Graph

Search for Another Location

Airport:

Trip Planner

Search our weather history database for the weather conditions in past years. The results will help you decide how hot, cold, wet, or windy it might be!

Date:

Astronomy

Aug. 20, 2013 Rise Set
Actual Time 5:27 AM CST 5:52 PM CST
Civil Twilight 5:06 AM CST 6:13 PM CST
Nautical Twilight 4:41 AM CST 6:38 PM CST
Astronomical Twilight 4:15 AM CST 7:04 PM CST
Moon 5:34 PM CST (8/20) 4:52 AM CST (8/20)
Length of Visible Light 13h 07m
Length of Day
12h 24m
Full, 100% of the Moon is Illuminated
Aug 20
Full
Aug 20
Full
Aug 28
Last Quarter
Sep 5
New
Sep 12
First Quarter

Hourly Weather History & Observations

Time (CST) Temp. Heat Index Dew Point Humidity Pressure Visibility Wind Dir Wind Speed Gust Speed Precip Events Conditions
12:00 AM 67 °F - 63 °F 83% 29.81 in 12 mi Calm Calm - -   Clear
12:00 AM 66.2 °F - 62.6 °F 88% 30.00 in - Calm Calm - N/A   Clear
1:00 AM 66.2 °F - 62.6 °F 88% 29.98 in - Calm Calm - N/A   Clear
2:00 AM 66.2 °F - 62.6 °F 88% 29.96 in - Calm Calm - N/A   Clear
3:00 AM 65 °F - 62 °F 86% 29.86 in 12 mi ENE 3.5 mph - -   Clear
3:00 AM 64.4 °F - 62.6 °F 94% 29.95 in - ENE 3.5 mph - N/A   Clear
4:00 AM 64.4 °F - 60.8 °F 88% 29.95 in - North 5.8 mph - N/A   Clear
5:00 AM 64.4 °F - 60.8 °F 88% 29.95 in - NE 4.6 mph - N/A   Clear
6:00 AM 65 °F - 61 °F 83% 29.85 in 12 mi NE 5.8 mph - -   Partly Cloudy
6:00 AM 64.4 °F - 60.8 °F 88% 29.96 in - NE 5.8 mph - N/A   Clear
7:00 AM 69.8 °F - 62.6 °F 78% 29.98 in - NE 5.8 mph - N/A   Clear
8:00 AM 71.6 °F - 62.6 °F 73% 30.00 in 6.2 mi ESE 11.5 mph - N/A   Mostly Cloudy
9:00 AM 78 °F - 64 °F 52% 29.83 in 12 mi East 4.6 mph - -   Scattered Clouds
9:00 AM 78.8 °F - 64.4 °F 61% 30.00 in 6.2 mi East 4.6 mph - N/A   Scattered Clouds
10:00 AM 82.4 °F 83.4 °F 62.6 °F 51% 30.00 in 6.2 mi East 9.2 mph - N/A   Scattered Clouds
11:00 AM 82.4 °F 86.3 °F 69.8 °F 66% 29.99 in 6.2 mi SW 13.8 mph - N/A   Mostly Cloudy
12:00 PM 79 °F - 67 °F 57% 29.81 in 12 mi WSW 15.0 mph - -   Partly Cloudy
12:00 PM 78.8 °F - 69.8 °F 74% 29.97 in 6.2 mi WSW 15.0 mph - N/A   Scattered Clouds
1:00 PM 78.8 °F - 69.8 °F 74% 29.95 in 6.2 mi WSW 6.9 mph 18.4 mph N/A   Scattered Clouds
2:00 PM 78.8 °F - 68.0 °F 69% 29.92 in 6.2 mi West 15.0 mph - N/A   Mostly Cloudy
2:15 PM 75.2 °F - 71.6 °F 89% 29.92 in 6.2 mi WSW 11.5 mph - N/A Rain , Thunderstorm Thunderstorms and Rain
3:00 PM 69 °F - 67 °F 89% 29.81 in 12 mi SW 10.4 mph - - Rain Light Rain
3:00 PM 69.8 °F - - N/A% 29.89 in 6.2 mi SW 10.4 mph - N/A Rain Rain
4:00 PM 69.8 °F - 69.8 °F 100% 29.91 in 1.2 mi WSW 6.9 mph - N/A   Mostly Cloudy
4:10 PM 69.8 °F - 69.8 °F 100% 29.91 in 0.3 mi WSW 6.9 mph - N/A Fog Fog
4:20 PM 69.8 °F - 69.8 °F 100% 29.91 in 1.2 mi WSW 4.6 mph - N/A   Mostly Cloudy
5:00 PM 71.6 °F - 69.8 °F 94% 29.92 in 3.1 mi SW 2.3 mph - N/A   Mostly Cloudy
6:00 PM 70 °F - 69 °F 94% 29.82 in 7 mi WSW 2.3 mph - -   Mist
6:00 PM 69.8 °F - 68.0 °F 94% 29.93 in 6.2 mi WSW 2.3 mph - N/A   Mostly Cloudy
7:00 PM 69.8 °F - 68.0 °F 94% 29.94 in 6.2 mi ESE 2.3 mph - N/A Fog Patches of Fog
8:00 PM 69.8 °F - 68.0 °F 94% 29.97 in 6.2 mi WNW 4.6 mph - N/A Fog Patches of Fog
9:00 PM 71 °F - 62 °F 65% 29.83 in 12 mi ESE 6.9 mph - -   Scattered Clouds
9:00 PM 71.6 °F - 62.6 °F 73% 30.00 in 6.2 mi ESE 6.9 mph - N/A   Mostly Cloudy
10:00 PM 71.6 °F - 62.6 °F 73% 30.02 in - Calm Calm - N/A   Clear
11:00 PM 69.8 °F - 62.6 °F 78% 30.01 in - WNW 3.5 mph - N/A   Clear